EZY14UA EGPH-LSGG

Flight info

Callsign EZY14UA
Flight time 1h 56m
Altitude 35000
Route GOSAM DCT ELBUS UL612 HON DCT XAMAB UL612 VEULE DCT PEKIM DCT PILUL DCT PIMUP/N0448F270 DCT PIXIS DCT PIBAT/N0422F230 DCT LUSAR
Aircraft A320/M-SDE3FGHIRWY/LB1

Departure

Time 2026-05-04 11:31
Airport Edinburgh Airport (EGPH)

Arrival

Time 2026-05-04 13:27
Airport Geneva International Airport (LSGG)
Time Latitude Longitude Altitude Speed Heading
2026-05-04 10:46 55.94951 -3.36038 117 ft 0 kts 254°
2026-05-04 11:01 55.94951 -3.36037 116 ft 0 kts 254°
2026-05-04 11:16 55.94952 -3.36037 116 ft 0 kts 254°
2026-05-04 11:19 55.94952 -3.36036 116 ft 0 kts 254°
2026-05-04 11:19 55.94952 -3.36033 116 ft 2 kts 254°
2026-05-04 11:20 55.94959 -3.35989 113 ft 4 kts 254°
2026-05-04 11:20 55.94966 -3.35944 114 ft 3 kts 254°
2026-05-04 11:20 55.94970 -3.35905 112 ft 4 kts 280°
2026-05-04 11:20 55.94958 -3.35869 114 ft 4 kts 328°
2026-05-04 11:22 55.94937 -3.35847 113 ft 0 kts 323°
2026-05-04 11:23 55.94937 -3.35846 113 ft 0 kts 323°
2026-05-04 11:24 55.95122 -3.35876 114 ft 9 kts 298°
2026-05-04 11:25 55.95171 -3.35952 113 ft 10 kts 330°
2026-05-04 11:25 55.95235 -3.35963 114 ft 9 kts 25°
2026-05-04 11:25 55.95267 -3.35887 111 ft 7 kts 61°
2026-05-04 11:26 55.95334 -3.35693 115 ft 9 kts 58°
2026-05-04 11:27 55.95497 -3.35438 113 ft 0 kts 329°
2026-05-04 11:28 55.95529 -3.35471 115 ft 7 kts 329°
2026-05-04 11:28 55.95572 -3.35543 113 ft 9 kts 285°
2026-05-04 11:28 55.95559 -3.35601 111 ft 0 kts 240°
2026-05-04 11:29 55.95514 -3.35742 113 ft 48 kts 239°
2026-05-04 11:29 55.95196 -3.36690 112 ft 126 kts 239°
2026-05-04 11:29 55.94653 -3.38312 376 ft 163 kts 244°
2026-05-04 11:31 55.90308 -3.52263 4451 ft 246 kts 259°
2026-05-04 11:33 55.88091 -3.74382 10300 ft 275 kts 261°
2026-05-04 11:33 55.87741 -3.77884 10543 ft 298 kts 261°
2026-05-04 11:33 55.87366 -3.81668 10741 ft 322 kts 261°
2026-05-04 11:34 55.86966 -3.85736 10918 ft 343 kts 261°
2026-05-04 11:34 55.86547 -3.89978 11503 ft 351 kts 261°
2026-05-04 11:34 55.86118 -3.94282 12215 ft 355 kts 261°
2026-05-04 11:34 55.85679 -3.98636 12898 ft 359 kts 261°
2026-05-04 11:35 55.85236 -4.02995 13575 ft 364 kts 261°
2026-05-04 11:35 55.84781 -4.07443 14189 ft 368 kts 261°
2026-05-04 11:35 55.84001 -4.11788 14753 ft 374 kts 244°
2026-05-04 11:35 55.82405 -4.15483 15327 ft 383 kts 224°
2026-05-04 11:36 55.80261 -4.18353 15905 ft 387 kts 218°
2026-05-04 11:36 55.78053 -4.21133 16487 ft 390 kts 217°
2026-05-04 11:36 55.75883 -4.23749 17075 ft 367 kts 217°
2026-05-04 11:36 55.73765 -4.26339 17682 ft 371 kts 217°
2026-05-04 11:37 55.71638 -4.28946 18308 ft 375 kts 217°
2026-05-04 11:37 55.69482 -4.31590 18849 ft 378 kts 216°
2026-05-04 11:37 55.67107 -4.33640 19401 ft 386 kts 198°
2026-05-04 11:37 55.64413 -4.34298 19695 ft 401 kts 180°
2026-05-04 11:38 55.61620 -4.33309 19826 ft 419 kts 159°
2026-05-04 11:38 55.59104 -4.30580 20079 ft 432 kts 138°
2026-05-04 11:38 55.57156 -4.26512 20463 ft 437 kts 126°
2026-05-04 11:38 55.55373 -4.22141 20958 ft 440 kts 125°
2026-05-04 11:39 55.53589 -4.17728 21419 ft 443 kts 125°
2026-05-04 11:39 55.51789 -4.13294 21887 ft 445 kts 127°
2026-05-04 11:40 55.36244 -3.94792 24405 ft 461 kts 150°
2026-05-04 11:41 55.33422 -3.92069 24769 ft 463 kts 150°
2026-05-04 11:41 55.30584 -3.89335 25122 ft 466 kts 150°
2026-05-04 11:41 55.27739 -3.86602 25467 ft 468 kts 151°
2026-05-04 11:41 55.24867 -3.83849 25807 ft 470 kts 151°
2026-05-04 11:42 55.21984 -3.81086 26131 ft 473 kts 151°
2026-05-04 11:42 55.19090 -3.78312 26478 ft 475 kts 150°
2026-05-04 11:42 55.16184 -3.75529 26844 ft 477 kts 150°
2026-05-04 11:42 55.13260 -3.72738 27161 ft 480 kts 150°
2026-05-04 11:43 55.10330 -3.69950 27461 ft 482 kts 150°
2026-05-04 11:43 55.07378 -3.67147 27874 ft 482 kts 150°
2026-05-04 11:43 55.05427 -3.65298 28168 ft 481 kts 150°
2026-05-04 11:43 55.01507 -3.61588 28739 ft 481 kts 150°
2026-05-04 11:44 54.99551 -3.59740 29017 ft 481 kts 150°
2026-05-04 11:44 54.96611 -3.56966 29459 ft 480 kts 150°
2026-05-04 11:44 54.93679 -3.54205 29892 ft 480 kts 149°
2026-05-04 11:44 54.90747 -3.51442 30310 ft 479 kts 149°
2026-05-04 11:45 54.87822 -3.48683 30732 ft 477 kts 149°
2026-05-04 11:45 54.84908 -3.45940 31167 ft 475 kts 149°
2026-05-04 11:45 54.82007 -3.43218 31597 ft 473 kts 149°
2026-05-04 11:45 54.79120 -3.40518 32038 ft 470 kts 149°
2026-05-04 11:46 54.76244 -3.37839 32473 ft 468 kts 150°
2026-05-04 11:46 54.73390 -3.35187 32909 ft 466 kts 150°
2026-05-04 11:46 54.70517 -3.32620 33348 ft 464 kts 152°
2026-05-04 11:46 54.67600 -3.30266 33818 ft 461 kts 154°
2026-05-04 11:47 54.64654 -3.28077 34276 ft 458 kts 155°
2026-05-04 11:47 54.61714 -3.25984 34633 ft 456 kts 156°
2026-05-04 11:47 54.58776 -3.23908 34952 ft 456 kts 156°
2026-05-04 11:47 54.55847 -3.21810 35059 ft 457 kts 155°
2026-05-04 11:48 54.52943 -3.19687 35062 ft 458 kts 155°
2026-05-04 11:48 54.47088 -3.15317 35068 ft 459 kts 154°
2026-05-04 11:49 54.41245 -3.10931 35070 ft 457 kts 154°
2026-05-04 11:49 54.35415 -3.06593 35073 ft 457 kts 154°
2026-05-04 11:50 54.29572 -3.02299 35072 ft 457 kts 154°
2026-05-04 11:50 54.23735 -2.98026 35074 ft 456 kts 154°
2026-05-04 11:51 54.17887 -2.93737 35076 ft 456 kts 154°
2026-05-04 11:51 54.12058 -2.89464 35080 ft 456 kts 154°
2026-05-04 11:52 54.06268 -2.85240 35084 ft 456 kts 154°
2026-05-04 11:52 54.00434 -2.81005 35078 ft 456 kts 154°
2026-05-04 11:53 53.94589 -2.76780 35085 ft 456 kts 154°
2026-05-04 11:53 53.88752 -2.72561 35093 ft 455 kts 154°
2026-05-04 11:55 53.65461 -2.55873 35093 ft 454 kts 153°
2026-05-04 11:56 53.59637 -2.51732 35097 ft 453 kts 153°
2026-05-04 11:56 53.53824 -2.47604 35088 ft 453 kts 153°
2026-05-04 11:57 53.48008 -2.43490 35098 ft 453 kts 153°
2026-05-04 11:57 53.42200 -2.39395 35092 ft 452 kts 154°
2026-05-04 11:58 53.36442 -2.35343 35087 ft 452 kts 153°
2026-05-04 11:58 53.30619 -2.31256 35095 ft 452 kts 154°
2026-05-04 11:59 53.24802 -2.27202 35094 ft 452 kts 154°
2026-05-04 11:59 53.19024 -2.23183 35093 ft 452 kts 154°
2026-05-04 12:00 53.13185 -2.19114 35098 ft 451 kts 154°
2026-05-04 12:00 53.07390 -2.15089 35088 ft 451 kts 154°
2026-05-04 12:01 53.01631 -2.11124 35086 ft 451 kts 154°
2026-05-04 12:02 52.81369 -1.97226 35076 ft 451 kts 155°
2026-05-04 12:03 52.75557 -1.93263 35072 ft 451 kts 155°
2026-05-04 12:03 52.69755 -1.89315 35083 ft 451 kts 156°
2026-05-04 12:04 52.63953 -1.85386 35066 ft 451 kts 156°
2026-05-04 12:04 52.58151 -1.81456 35061 ft 451 kts 156°
2026-05-04 12:05 52.52337 -1.77540 35060 ft 451 kts 156°
2026-05-04 12:05 52.46567 -1.73673 35070 ft 451 kts 157°
2026-05-04 12:06 52.40760 -1.69786 35074 ft 450 kts 157°
2026-05-04 12:06 52.35003 -1.65740 35072 ft 449 kts 150°
2026-05-04 12:07 52.29606 -1.60627 35072 ft 448 kts 149°
2026-05-04 12:07 52.24201 -1.55551 35077 ft 447 kts 150°
2026-05-04 12:08 52.18799 -1.50489 35075 ft 447 kts 150°
2026-05-04 12:08 52.13414 -1.45439 35064 ft 446 kts 150°
2026-05-04 12:09 52.08027 -1.40407 35069 ft 446 kts 150°
2026-05-04 12:09 52.02638 -1.35394 35066 ft 446 kts 150°
2026-05-04 12:10 51.97259 -1.30392 35068 ft 445 kts 150°
2026-05-04 12:10 51.91922 -1.25451 35066 ft 444 kts 150°
2026-05-04 12:11 51.86555 -1.20485 35063 ft 444 kts 150°
2026-05-04 12:11 51.81186 -1.15542 35056 ft 443 kts 151°
2026-05-04 12:12 51.75811 -1.10617 35021 ft 444 kts 151°
2026-05-04 12:12 51.70440 -1.05691 35016 ft 444 kts 151°
2026-05-04 12:14 51.48956 -0.86153 35038 ft 443 kts 152°
2026-05-04 12:15 51.43598 -0.81306 35035 ft 442 kts 152°
2026-05-04 12:15 51.38244 -0.76475 35032 ft 441 kts 152°
2026-05-04 12:16 51.32895 -0.71669 35029 ft 440 kts 152°
2026-05-04 12:16 51.27556 -0.66899 35049 ft 438 kts 153°
2026-05-04 12:17 51.22246 -0.62155 35054 ft 437 kts 153°
2026-05-04 12:17 51.16974 -0.57444 35033 ft 436 kts 153°
2026-05-04 12:18 51.11673 -0.52725 35031 ft 436 kts 153°
2026-05-04 12:18 51.06371 -0.48020 35028 ft 436 kts 153°
2026-05-04 12:19 51.01074 -0.43338 35027 ft 435 kts 153°
2026-05-04 12:19 50.95777 -0.38675 35026 ft 435 kts 153°
2026-05-04 12:20 50.90477 -0.34018 35024 ft 435 kts 153°
2026-05-04 12:20 50.85180 -0.29367 35024 ft 434 kts 153°
2026-05-04 12:21 50.79895 -0.24743 35030 ft 434 kts 153°
2026-05-04 12:21 50.74609 -0.20131 35028 ft 433 kts 153°
2026-05-04 12:22 50.69329 -0.15533 35027 ft 434 kts 153°
2026-05-04 12:22 50.64080 -0.10972 35025 ft 433 kts 153°
2026-05-04 12:23 50.58770 -0.06373 35030 ft 432 kts 153°
2026-05-04 12:23 50.53524 -0.01852 35028 ft 432 kts 153°
2026-05-04 12:24 50.48250 0.02693 35013 ft 432 kts 153°
2026-05-04 12:24 50.42978 0.07220 35026 ft 431 kts 153°
2026-05-04 12:25 50.37717 0.11735 35024 ft 431 kts 153°
2026-05-04 12:25 50.32458 0.16245 35015 ft 431 kts 153°
2026-05-04 12:26 50.27200 0.20739 35011 ft 430 kts 153°
2026-05-04 12:26 50.21975 0.25172 35009 ft 430 kts 154°
2026-05-04 12:27 50.16811 0.29895 35003 ft 431 kts 149°
2026-05-04 12:27 50.11828 0.35119 35000 ft 432 kts 148°
2026-05-04 12:28 50.06862 0.40412 35002 ft 432 kts 148°
2026-05-04 12:28 50.01860 0.45591 34986 ft 432 kts 149°
2026-05-04 12:29 49.96819 0.50696 35000 ft 432 kts 149°
2026-05-04 12:29 49.91784 0.55781 35012 ft 432 kts 149°
2026-05-04 12:30 49.86756 0.60879 35005 ft 432 kts 148°
2026-05-04 12:30 49.82218 0.67017 35003 ft 435 kts 139°
2026-05-04 12:31 49.77836 0.73409 34994 ft 435 kts 140°
2026-05-04 12:31 49.74136 0.78771 34995 ft 435 kts 140°
2026-05-04 12:32 49.66793 0.89386 34991 ft 435 kts 140°
2026-05-04 12:33 49.63091 0.94722 34983 ft 434 kts 140°
2026-05-04 12:33 49.58712 1.01028 34992 ft 433 kts 140°
2026-05-04 12:34 49.54303 1.07364 34999 ft 433 kts 140°
2026-05-04 12:34 49.49893 1.13684 35000 ft 433 kts 140°
2026-05-04 12:35 49.45477 1.19986 35002 ft 433 kts 140°
2026-05-04 12:35 49.41058 1.26269 35002 ft 433 kts 140°
2026-05-04 12:36 49.36672 1.32504 35006 ft 432 kts 140°
2026-05-04 12:36 49.32255 1.38777 34986 ft 432 kts 141°
2026-05-04 12:37 49.27836 1.45009 34994 ft 431 kts 141°
2026-05-04 12:37 49.23417 1.51239 34995 ft 431 kts 141°
2026-05-04 12:38 49.19032 1.57415 34992 ft 431 kts 141°
2026-05-04 12:38 49.14618 1.63597 34992 ft 430 kts 141°
2026-05-04 12:39 49.10198 1.69775 34988 ft 430 kts 141°
2026-05-04 12:39 49.07224 1.73922 34991 ft 430 kts 141°
2026-05-04 12:40 49.02791 1.80102 34960 ft 430 kts 141°
2026-05-04 12:40 48.98398 1.86212 34965 ft 431 kts 141°
2026-05-04 12:41 48.93943 1.92385 34965 ft 430 kts 142°
2026-05-04 12:41 48.89541 1.98468 34966 ft 430 kts 142°
2026-05-04 12:42 48.85102 2.04587 34973 ft 430 kts 142°
2026-05-04 12:42 48.80691 2.10649 34967 ft 430 kts 142°
2026-05-04 12:43 48.76256 2.16736 34968 ft 430 kts 142°
2026-05-04 12:43 48.71815 2.22822 34959 ft 430 kts 142°
2026-05-04 12:44 48.67377 2.28881 34961 ft 430 kts 142°
2026-05-04 12:44 48.62926 2.34943 34963 ft 430 kts 142°
2026-05-04 12:45 48.58485 2.40978 34969 ft 429 kts 142°
2026-05-04 12:45 48.54042 2.47001 34969 ft 429 kts 142°
2026-05-04 12:46 48.49621 2.52982 34974 ft 429 kts 142°
2026-05-04 12:46 48.45162 2.58996 34954 ft 429 kts 143°
2026-05-04 12:47 48.40716 2.64977 34951 ft 429 kts 142°
2026-05-04 12:47 48.36247 2.70974 34958 ft 429 kts 142°
2026-05-04 12:48 48.31794 2.76927 34964 ft 429 kts 143°
2026-05-04 12:48 48.27319 2.82882 34964 ft 428 kts 143°
2026-05-04 12:49 48.22697 2.88485 34972 ft 426 kts 147°
2026-05-04 12:49 48.17951 2.93813 34963 ft 426 kts 147°
2026-05-04 12:50 48.13211 2.99149 34940 ft 426 kts 147°
2026-05-04 12:50 48.08458 3.04384 34944 ft 423 kts 153°
2026-05-04 12:51 48.03163 3.08083 34951 ft 420 kts 160°
2026-05-04 12:51 47.97772 3.11473 34953 ft 420 kts 160°
2026-05-04 12:52 47.92389 3.14843 34950 ft 420 kts 160°
2026-05-04 12:52 47.87037 3.18200 34954 ft 420 kts 160°
2026-05-04 12:53 47.81651 3.21578 34948 ft 420 kts 160°
2026-05-04 12:53 47.76264 3.24946 34951 ft 420 kts 160°
2026-05-04 12:54 47.70875 3.28297 34950 ft 420 kts 161°
2026-05-04 12:54 47.65476 3.31659 34952 ft 420 kts 160°
2026-05-04 12:55 47.60102 3.35003 34935 ft 420 kts 161°
2026-05-04 12:55 47.54704 3.38340 34944 ft 419 kts 161°
2026-05-04 12:56 47.49314 3.41666 34946 ft 419 kts 161°
2026-05-04 12:56 47.43931 3.44980 34949 ft 419 kts 161°
2026-05-04 12:57 47.38592 3.48254 34954 ft 419 kts 161°
2026-05-04 12:57 47.33203 3.51553 34953 ft 418 kts 161°
2026-05-04 12:58 47.27826 3.54843 34951 ft 419 kts 161°
2026-05-04 12:58 47.22433 3.58140 34951 ft 419 kts 161°
2026-05-04 12:59 47.17053 3.61426 34951 ft 419 kts 161°
2026-05-04 12:59 47.11665 3.64704 34950 ft 419 kts 161°
2026-05-04 13:00 47.06276 3.67974 34950 ft 419 kts 161°
2026-05-04 13:00 47.00908 3.71223 34959 ft 420 kts 161°
2026-05-04 13:01 46.95852 3.75600 34959 ft 430 kts 143°
2026-05-04 13:01 46.93804 3.78806 34962 ft 437 kts 132°
2026-05-04 13:01 46.92190 3.82607 34959 ft 444 kts 121°
2026-05-04 13:02 46.89894 3.91091 34944 ft 448 kts 116°
2026-05-04 13:02 46.87635 3.99600 34943 ft 449 kts 116°
2026-05-04 13:03 46.85362 4.08110 34926 ft 450 kts 117°
2026-05-04 13:03 46.83084 4.16622 34940 ft 451 kts 117°
2026-05-04 13:04 46.80829 4.25192 34957 ft 453 kts 113°
2026-05-04 13:04 46.79410 4.34154 34966 ft 458 kts 107°
2026-05-04 13:05 46.78088 4.43249 34988 ft 458 kts 107°
2026-05-04 13:05 46.76747 4.52351 34972 ft 458 kts 108°
2026-05-04 13:06 46.75404 4.61439 34988 ft 458 kts 108°
2026-05-04 13:06 46.74060 4.70511 34992 ft 458 kts 108°
2026-05-04 13:07 46.72703 4.79586 35003 ft 458 kts 108°
2026-05-04 13:07 46.71341 4.88652 34982 ft 458 kts 108°
2026-05-04 13:08 46.69967 4.97726 34991 ft 459 kts 108°
2026-05-04 13:08 46.68599 5.06755 34876 ft 460 kts 108°
2026-05-04 13:08 46.67903 5.11324 33940 ft 462 kts 108°
2026-05-04 13:09 46.67204 5.15901 32491 ft 464 kts 108°
2026-05-04 13:09 46.66503 5.20484 31363 ft 461 kts 108°
2026-05-04 13:09 46.65823 5.24999 30425 ft 453 kts 108°
2026-05-04 13:09 46.65163 5.29424 29292 ft 445 kts 107°
2026-05-04 13:10 46.64514 5.33777 28226 ft 437 kts 107°
2026-05-04 13:10 46.63864 5.38081 27169 ft 437 kts 107°
2026-05-04 13:10 46.63200 5.42421 26005 ft 441 kts 107°
2026-05-04 13:10 46.62527 5.46790 24858 ft 445 kts 107°
2026-05-04 13:11 46.61840 5.51218 23737 ft 446 kts 107°
2026-05-04 13:11 46.61158 5.55590 22611 ft 440 kts 107°
2026-05-04 13:11 46.60484 5.59900 21789 ft 436 kts 107°
2026-05-04 13:11 46.59808 5.64201 20971 ft 435 kts 107°
2026-05-04 13:12 46.59131 5.68492 20141 ft 436 kts 107°
2026-05-04 13:12 46.58444 5.72793 19330 ft 436 kts 108°
2026-05-04 13:12 46.57433 5.76926 18531 ft 432 kts 118°
2026-05-04 13:12 46.55976 5.80643 17685 ft 427 kts 128°
2026-05-04 13:13 46.54076 5.83963 16916 ft 419 kts 138°
2026-05-04 13:13 46.51872 5.86696 16208 ft 412 kts 148°
2026-05-04 13:13 46.49587 5.88968 15996 ft 396 kts 148°
2026-05-04 13:13 46.47369 5.91191 15876 ft 379 kts 148°
2026-05-04 13:14 46.45240 5.93334 15749 ft 365 kts 148°
2026-05-04 13:14 46.43194 5.95396 15630 ft 352 kts 148°
2026-05-04 13:14 46.41225 5.97378 15499 ft 339 kts 149°
2026-05-04 13:14 46.39318 5.99292 15401 ft 327 kts 149°
2026-05-04 13:15 46.37642 6.01464 15281 ft 324 kts 130°
2026-05-04 13:15 46.36701 6.04422 15117 ft 326 kts 105°
2026-05-04 13:15 46.36707 6.07720 14645 ft 338 kts 78°
2026-05-04 13:15 46.37803 6.10724 14369 ft 339 kts 50°
2026-05-04 13:16 46.39419 6.13174 14031 ft 334 kts 46°
2026-05-04 13:16 46.41048 6.15563 13368 ft 331 kts 46°
2026-05-04 13:16 46.42661 6.17912 12719 ft 327 kts 46°
2026-05-04 13:16 46.44236 6.20211 12158 ft 322 kts 46°
2026-05-04 13:17 46.45764 6.22446 12009 ft 303 kts 46°
2026-05-04 13:17 46.47220 6.24589 11614 ft 294 kts 46°
2026-05-04 13:17 46.48642 6.26693 11120 ft 290 kts 47°
2026-05-04 13:17 46.50050 6.28778 10644 ft 287 kts 47°
2026-05-04 13:18 46.51413 6.30850 10209 ft 281 kts 53°
2026-05-04 13:18 46.52257 6.33329 9694 ft 271 kts 82°
2026-05-04 13:18 46.52231 6.35990 9234 ft 261 kts 110°
2026-05-04 13:18 46.51446 6.38268 8873 ft 244 kts 135°
2026-05-04 13:19 46.50299 6.39941 8746 ft 226 kts 140°
2026-05-04 13:19 46.49576 6.40969 8627 ft 214 kts 141°
2026-05-04 13:19 46.48085 6.42763 7926 ft 205 kts 160°
2026-05-04 13:19 46.46734 6.43141 7442 ft 196 kts 185°
2026-05-04 13:20 46.45464 6.42619 7072 ft 186 kts 208°
2026-05-04 13:20 46.44508 6.41481 6828 ft 176 kts 223°
2026-05-04 13:20 46.43670 6.40236 6605 ft 170 kts 222°
2026-05-04 13:20 46.42856 6.39027 6385 ft 165 kts 222°
2026-05-04 13:21 46.42061 6.37848 6156 ft 162 kts 221°
2026-05-04 13:21 46.41278 6.36685 5950 ft 159 kts 221°
2026-05-04 13:21 46.40508 6.35545 5743 ft 157 kts 222°
2026-05-04 13:21 46.39747 6.34417 5549 ft 154 kts 222°
2026-05-04 13:22 46.39031 6.33354 5343 ft 144 kts 223°
2026-05-04 13:22 46.38348 6.32343 5139 ft 141 kts 223°
2026-05-04 13:22 46.37655 6.31319 4970 ft 140 kts 223°
2026-05-04 13:22 46.36986 6.30328 4776 ft 140 kts 223°
2026-05-04 13:23 46.36305 6.29321 4594 ft 139 kts 223°
2026-05-04 13:23 46.35628 6.28321 4403 ft 139 kts 224°
2026-05-04 13:23 46.34950 6.27317 4221 ft 139 kts 224°
2026-05-04 13:23 46.34271 6.26314 4032 ft 140 kts 224°
2026-05-04 13:24 46.33591 6.25311 3861 ft 140 kts 225°
2026-05-04 13:24 46.32912 6.24308 3661 ft 140 kts 224°
2026-05-04 13:24 46.32228 6.23299 3482 ft 140 kts 224°
2026-05-04 13:25 46.31091 6.21621 3171 ft 140 kts 224°
2026-05-04 13:25 46.30409 6.20615 2984 ft 140 kts 225°
2026-05-04 13:25 46.29724 6.19605 2782 ft 141 kts 225°
2026-05-04 13:25 46.29036 6.18592 2572 ft 140 kts 227°
2026-05-04 13:26 46.28360 6.17595 2376 ft 138 kts 225°
2026-05-04 13:26 46.27694 6.16616 2173 ft 137 kts 227°
2026-05-04 13:26 46.27025 6.15639 2024 ft 136 kts 226°
2026-05-04 13:26 46.26355 6.14650 1837 ft 138 kts 226°
2026-05-04 13:27 46.25693 6.13677 1607 ft 136 kts 227°
2026-05-04 13:27 46.25035 6.12699 1433 ft 133 kts 227°
2026-05-04 13:27 46.24432 6.11803 1372 ft 99 kts 224°
2026-05-04 13:27 46.24152 6.11408 1375 ft 25 kts 225°
2026-05-04 13:28 46.24039 6.11242 1378 ft 22 kts 225°
2026-05-04 13:28 46.23936 6.11095 1378 ft 20 kts 219°
2026-05-04 13:28 46.23818 6.11075 1379 ft 10 kts 173°
2026-05-04 13:28 46.23794 6.11080 1377 ft 0 kts 172°
2026-05-04 13:29 46.23791 6.11081 1378 ft 0 kts 172°
2026-05-04 13:30 46.23785 6.11082 1378 ft 6 kts 172°
2026-05-04 13:30 46.23735 6.11087 1385 ft 7 kts 184°
2026-05-04 13:31 46.23696 6.11062 1384 ft 8 kts 215°
2026-05-04 13:31 46.23652 6.11002 1388 ft 9 kts 225°
2026-05-04 13:31 46.23606 6.10934 1389 ft 10 kts 225°
2026-05-04 13:31 46.23558 6.10863 1386 ft 9 kts 225°
2026-05-04 13:32 46.23512 6.10796 1389 ft 9 kts 225°
2026-05-04 13:32 46.23470 6.10761 1400 ft 4 kts 164°
2026-05-04 13:32 46.23451 6.10775 1402 ft 2 kts 141°
2026-05-04 13:32 46.23440 6.10789 1395 ft 4 kts 136°
2026-05-04 13:33 46.23431 6.10802 1395 ft 0 kts 134°
2026-05-04 13:33 46.23423 6.10815 1400 ft 0 kts 135°